This is the latest recevied weather packets stored in our database for station/object WE1C. If no packets are shown the sender has not sent any weather packets the latest 10 day(s).
| Time | Temp. | Humidity | Pressure | Rain* | Wind** | Luminosity | Snow |
|---|---|---|---|---|---|---|---|
| 1778077243 | 19.44° C | 67% | 1038.2 hPa | 0 mm | - | 291 W/m² | - |
| 1778076940 | 19.44° C | 67% | 1038.3 hPa | 0 mm | - | 403 W/m² | - |
| 1778076638 | 19.44° C | 68% | 1038.4 hPa | 0 mm | - | 439 W/m² | - |
| 1778076335 | 18.89° C | 68% | 1038.1 hPa | 0 mm | - | 349 W/m² | - |
| 1778076033 | 18.89° C | 69% | 1038.3 hPa | 0 mm | - | 376 W/m² | - |
| 1778075729 | 18.89° C | 69% | 1038.1 hPa | 0 mm | - | 305 W/m² | - |
| 1778075425 | 19.44° C | 69% | 1038.1 hPa | 0 mm | - | 306 W/m² | - |
| 1778075122 | 19.44° C | 69% | 1038.2 hPa | 0 mm | - | 482 W/m² | - |
| 1778074818 | 18.89° C | 71% | 1038.4 hPa | 0 mm | - | 484 W/m² | - |
| 1778074515 | 18.89° C | 71% | 1038.3 hPa | 0 mm | - | 334 W/m² | - |
| 1778074212 | 18.33° C | 71% | 1038.2 hPa | 0 mm | - | 322 W/m² | - |
| 1778073909 | 18.33° C | 72% | 1038.3 hPa | 0 mm | - | 302 W/m² | - |
| 1778073607 | 18.33° C | 72% | 1038.4 hPa | 0 mm | - | 346 W/m² | - |
| 1778073304 | 18.33° C | 73% | 1038.7 hPa | 0 mm | - | 399 W/m² | - |
| 1778073000 | 17.78° C | 73% | 1039 hPa | 0 mm | - | 332 W/m² | - |
| 1778072697 | 17.78° C | 74% | 1039 hPa | 0 mm | - | 343 W/m² | - |
| 1778072394 | 17.22° C | 75% | 1039.1 hPa | 0 mm | - | 436 W/m² | - |
| 1778072093 | 17.22° C | 76% | 1039 hPa | 0 mm | - | 215 W/m² | - |
| 1778071790 | 17.22° C | 76% | 1038.9 hPa | 0 mm | - | 197 W/m² | - |
| 1778071488 | 17.22° C | 76% | 1038.8 hPa | 0 mm | - | 196 W/m² | - |
| 1778071185 | 16.67° C | 77% | 1039.1 hPa | 0 mm | - | 184 W/m² | - |
| 1778070883 | 16.67° C | 77% | 1038.7 hPa | 0 mm | - | 177 W/m² | - |
| 1778070580 | 16.67° C | 76% | 1039.1 hPa | 0 mm | - | 164 W/m² | - |
| 1778070277 | 16.67° C | 76% | 1038.8 hPa | 0 mm | - | 206 W/m² | - |
| 1778069976 | 16.67° C | 77% | 1038.7 hPa | 0 mm | - | 285 W/m² | - |
* Rain latest hour (hover to see other rain measurements)
** Current wind speed in m/s (hover to see current wind gust speed)